Valdosta, GA

11:01 AM EDT on March 29, 2017 (GMT -0400)
Moody Air Force Base

Weather History for KVAD - January, 2013

Change the Weather History Date:

Wednesday, January 30, 2013

  Actual Average Record
Temperature  
Mean Temperature 66 °F -  
Max Temperature 79 °F 60 °F 82 °F (2002)
Min Temperature 53 °F 42 °F 28 °F (2014)
Cooling Degree Days 1    
Growing Degree Days 16 (Base 50)    
Moisture  
Dew Point 61 °F    
Average Humidity 79    
Maximum Humidity 100    
Minimum Humidity 54    
Precipitation  
Precipitation 0.59 in - - ()
Sea Level Pressure  
Sea Level Pressure 29.86 in    
Wind  
Wind Speed 16 mph (SSW)    
Max Wind Speed 28 mph    
Max Gust Speed 43 mph    
Visibility 8 miles    
Events Rain    
Averages and records for this station are not official NWS values.
T = Trace of Precipitation, MM = Missing Value Source: NWS Daily Summary

Daily Weather History Graph

Daily Weather History Graph

Search for Another Location

Airport or City:

Trip Planner

Search our weather history database for the weather conditions in past years. The results will help you decide how hot, cold, wet, or windy it might be!

Date:

Astronomy

Jan. 30, 2013 Rise Set
Actual Time 7:25 AM EST 6:06 PM EST
Civil Twilight 7:00 AM EST 6:32 PM EST
Nautical Twilight 6:31 AM EST 7:01 PM EST
Astronomical Twilight 6:02 AM EST 7:29 PM EST
Moon 9:44 PM EST (1/30) 9:10 AM EST (1/30)
Length of Visible Light 11h 32m
Length of Day
10h 41m
Waning Gibbous, 88% of the Moon is Illuminated
Jan 30
Waning Gibbous
Feb 3
Last Quarter
Feb 10
New
Feb 17
First Quarter
Feb 25
Full

Hourly Weather History & Observations

Time (EST) Temp. Dew Point Humidity Pressure Visibility Wind Dir Wind Speed Gust Speed Precip Events Conditions
12:55 AM 67.6 °F 61.2 °F 80% 30.06 in 10.0 mi SSE 9.2 mph - N/A   Overcast
1:55 AM 68.0 °F 61.7 °F 80% 30.04 in 10.0 mi SSE 10.4 mph - N/A   Overcast
2:55 AM 67.6 °F 62.6 °F 84% 30.01 in 10.0 mi South 12.7 mph - N/A   Scattered Clouds
3:55 AM 67.1 °F 63.3 °F 88% 30.00 in 10.0 mi South 12.7 mph - N/A   Partly Cloudy
4:35 AM 68.0 °F 64.4 °F 88% 30.00 in 10.0 mi South 11.5 mph - N/A   Mostly Cloudy
4:36 AM 68.0 °F 64.4 °F 88% 30.00 in 10.0 mi South 10.4 mph - N/A   Mostly Cloudy
4:37 AM 68.0 °F 64.4 °F 88% 29.99 in 10.0 mi South 9.2 mph - N/A   Mostly Cloudy
4:55 AM 67.6 °F 63.9 °F 88% 29.99 in 10.0 mi South 10.4 mph - N/A   Overcast
4:57 AM 68.0 °F 64.4 °F 88% 29.99 in 10.0 mi South 13.8 mph - N/A   Overcast
5:55 AM 67.6 °F 64.6 °F 90% 29.97 in 10.0 mi South 16.1 mph - N/A   Overcast
6:49 AM 68.0 °F 66.2 °F 94% 29.97 in 10.0 mi South 18.4 mph 24.2 mph N/A   Overcast
6:55 AM 67.6 °F 65.5 °F 93% 29.97 in 10.0 mi South 18.4 mph - N/A   Overcast
6:56 AM 68.0 °F 66.2 °F 94% 29.98 in 10.0 mi South 17.3 mph - N/A   Overcast
7:55 AM 67.8 °F 64.8 °F 90% 29.96 in 10.0 mi South 16.1 mph - N/A   Overcast
8:55 AM 69.3 °F 64.2 °F 84% 29.94 in 10.0 mi South 16.1 mph 24.2 mph N/A   Overcast
9:49 AM 71.6 °F 62.6 °F 73% 29.95 in 10.0 mi South 23.0 mph 28.8 mph N/A   Mostly Cloudy
9:55 AM 72.0 °F 63.3 °F 74% 29.95 in 10.0 mi South 19.6 mph 29.9 mph N/A   Overcast
10:36 AM 73.4 °F 62.6 °F 69% - - North - - N/A   Scattered Clouds
10:40 AM 73.4 °F 62.6 °F 69% - - North - - N/A   Scattered Clouds
10:55 AM - - N/A% - 10.0 mi South 17.3 mph 25.3 mph N/A   Partly Cloudy
11:09 AM 75.2 °F 62.6 °F 65% 29.92 in 10.0 mi South 19.6 mph 27.6 mph N/A   Mostly Cloudy
11:18 AM 75.2 °F 62.6 °F 65% 29.91 in 10.0 mi South 24.2 mph 31.1 mph N/A   Mostly Cloudy
11:55 AM 79.2 °F 61.3 °F 54% 29.89 in 10.0 mi South 26.5 mph 31.1 mph N/A   Partly Cloudy
12:55 PM 76.8 °F 61.3 °F 59% 29.86 in 10.0 mi South 26.5 mph 34.5 mph N/A   Mostly Cloudy
12:57 PM 77.0 °F 60.8 °F 57% 29.86 in 10.0 mi South 25.3 mph 34.5 mph N/A Rain Light Rain
1:13 PM 75.2 °F 62.6 °F 65% 29.85 in 10.0 mi South 26.5 mph 34.5 mph N/A   Overcast
1:37 PM 75.2 °F 62.6 °F 65% 29.84 in 10.0 mi South 17.3 mph 31.1 mph N/A Rain Light Rain
1:49 PM 73.4 °F 62.6 °F 69% 29.83 in 10.0 mi South 19.6 mph 33.4 mph N/A   Overcast
1:54 PM 73.4 °F 64.4 °F 73% 29.83 in 10.0 mi SSW 18.4 mph 33.4 mph N/A Rain Light Rain
1:55 PM 73.9 °F 63.5 °F 70% 29.83 in 10.0 mi South 19.6 mph 33.4 mph 0.00 in Rain Light Rain
2:03 PM 73.4 °F 62.6 °F 69% 29.82 in 10.0 mi South 18.4 mph 32.2 mph N/A   Overcast
2:37 PM 75.2 °F 64.4 °F 69% 29.81 in 10.0 mi South 21.9 mph 27.6 mph N/A Rain Light Rain
2:40 PM 75.2 °F 64.4 °F 69% 29.81 in 10.0 mi South 26.5 mph 32.2 mph N/A Rain Light Rain
2:49 PM 75.2 °F 64.4 °F 69% 29.81 in 10.0 mi South 24.2 mph 29.9 mph N/A   Overcast
2:55 PM 75.2 °F 64.2 °F 69% 29.80 in 10.0 mi South 20.7 mph 31.1 mph 0.00 in   Overcast
2:59 PM 75.2 °F 64.4 °F 69% 29.80 in 10.0 mi South 19.6 mph 31.1 mph N/A Rain Light Rain
3:14 PM 73.4 °F 64.4 °F 73% 29.79 in 10.0 mi South 21.9 mph 29.9 mph N/A   Overcast
3:55 PM 76.1 °F 64.6 °F 67% 29.78 in 10.0 mi South 24.2 mph 36.8 mph 0.00 in   Overcast
4:30 PM 75.2 °F 64.4 °F 69% 29.76 in 10.0 mi South 27.6 mph 35.7 mph N/A   Overcast
4:36 PM 75.2 °F 64.4 °F 69% 29.77 in 10.0 mi South 21.9 mph 35.7 mph N/A   Overcast
4:39 PM 75.2 °F 64.4 °F 69% 29.77 in 10.0 mi South 23.0 mph 35.7 mph N/A   Overcast
4:55 PM 75.0 °F 64.8 °F 70% 29.76 in 10.0 mi South 24.2 mph 29.9 mph N/A   Overcast
5:55 PM 74.5 °F 65.5 °F 73% 29.73 in 10.0 mi SSW 20.7 mph 29.9 mph N/A   Overcast
6:55 PM 73.8 °F 65.7 °F 76% 29.72 in 10.0 mi South 19.6 mph 39.1 mph N/A   Overcast
7:49 PM 73.4 °F 66.2 °F 78% 29.75 in 10.0 mi SSW 26.5 mph 41.4 mph N/A Rain Light Rain
7:55 PM 73.6 °F 66.6 °F 79% 29.75 in 10.0 mi SSW 17.3 mph 36.8 mph 0.00 in Rain Light Rain
8:02 PM 73.4 °F 66.2 °F 78% 29.76 in 6.0 mi WSW 21.9 mph 31.1 mph N/A Rain Light Rain
8:06 PM 69.8 °F 62.6 °F 78% 29.80 in 2.5 mi WNW 25.3 mph 42.6 mph N/A Rain Heavy Rain
8:07 PM 68.0 °F 60.8 °F 78% 29.80 in 2.0 mi West 23.0 mph 42.6 mph N/A Rain Heavy Rain
8:08 PM 66.2 °F 59.0 °F 78% 29.81 in 1.8 mi West 21.9 mph 42.6 mph N/A Rain Heavy Rain
8:09 PM 66.2 °F 59.0 °F 78% 29.81 in 1.5 mi West 21.9 mph 42.6 mph N/A Rain Heavy Rain
8:10 PM 64.4 °F 59.0 °F 83% 29.82 in 1.2 mi West 20.7 mph 42.6 mph N/A Rain Heavy Rain
8:12 PM 62.6 °F 57.2 °F 82% 29.82 in 1.0 mi West 12.7 mph 42.6 mph N/A Rain Heavy Rain
8:18 PM 59.0 °F 55.4 °F 88% 29.82 in 1.2 mi WNW 18.4 mph 28.8 mph N/A Rain Heavy Rain
8:21 PM 57.2 °F 55.4 °F 94% 29.81 in 1.5 mi WNW 23.0 mph 28.8 mph N/A Rain Heavy Rain
8:34 PM 55.4 °F 53.6 °F 94% 29.83 in 2.0 mi WNW 15.0 mph 33.4 mph N/A Rain Heavy Rain
8:48 PM 53.6 °F 53.6 °F 100% 29.83 in 2.0 mi WNW 12.7 mph - N/A Rain Rain
8:50 PM 53.6 °F 53.6 °F 100% 29.84 in 2.5 mi WNW 11.5 mph - N/A Rain Light Rain
8:51 PM 53.6 °F 53.6 °F 100% 29.84 in 3.0 mi WNW 12.7 mph - N/A Rain Light Rain
8:55 PM 54.0 °F 53.1 °F 97% 29.83 in 5.0 mi West 9.2 mph - 0.53 in Rain Light Rain
9:02 PM 53.6 °F 53.6 °F 100% 29.83 in 3.0 mi West 11.5 mph 20.7 mph N/A Rain Rain
9:03 PM 53.6 °F 53.6 °F 100% 29.83 in 3.0 mi West 11.5 mph 20.7 mph N/A Rain Light Rain
9:40 PM 53.6 °F 51.8 °F 94% 29.85 in 10.0 mi WSW 8.1 mph - N/A   Overcast
9:55 PM 53.6 °F 52.2 °F 95% 29.86 in 10.0 mi WSW 9.2 mph - 0.06 in   Overcast
10:55 PM 54.5 °F 48.6 °F 80% 29.88 in 10.0 mi West 11.5 mph 18.4 mph N/A   Overcast
11:55 PM 54.3 °F 47.5 °F 78% 29.90 in 10.0 mi West 8.1 mph - N/A   Mostly Cloudy